| time (UTC) | temp C | wind direction | speed KPH | gust KPH | rain 1hr cm | rain 24hr cm | rain mn cm | humidity % | barometer mb |
| 20260906191027 | 32 | 33 | 4.8 | 11.3 | 0.00 | 0.00 | 0.00 | 52 | 1013.1 |
| 20260906190528 | 32 | 94 | 4.8 | 9.7 | 0.00 | 0.00 | 0.00 | 53 | 1013.2 |
| 20260906190054 | 32 | 37 | 4.8 | 9.7 | 0.00 | 0.00 | 0.00 | 53 | 1013.3 |
| 20260906185527 | 32 | 81 | 3.2 | 11.3 | 0.00 | 0.00 | 0.00 | 52 | 1013.4 |
| 20260906185029 | 32 | 82 | 4.8 | 12.9 | 0.00 | 0.00 | 0.00 | 52 | 1013.5 |
| 20260906184551 | 32 | 70 | 4.8 | 12.9 | 0.00 | 0.00 | 0.00 | 53 | 1013.6 |
| 20260906184033 | 32 | 44 | 3.2 | 9.7 | 0.00 | 0.00 | 0.00 | 52 | 1013.7 |
| 20260906183526 | 32 | 68 | 1.6 | 9.7 | 0.00 | 0.00 | 0.00 | 51 | 1013.9 |
| 20260906183055 | 32 | 319 | 1.6 | 6.4 | 0.00 | 0.00 | 0.00 | 51 | 1014.1 |
| 20260906182525 | 32 | 49 | 1.6 | 9.7 | 0.00 | 0.00 | 0.00 | 52 | 1014.1 |
| 20260906182030 | 32 | 42 | 3.2 | 9.7 | 0.00 | 0.00 | 0.00 | 52 | 1014.3 |
| 20260906181553 | 32 | 336 | 3.2 | 11.3 | 0.00 | 0.00 | 0.00 | 53 | 1014.4 |
| 20260906181024 | 32 | 69 | 4.8 | 11.3 | 0.00 | 0.00 | 0.00 | 52 | 1014.4 |
| 20260906180527 | 31 | 33 | 3.2 | 16.1 | 0.00 | 0.00 | 0.00 | 53 | 1014.5 |
| 20260906180107 | 31 | 331 | 4.8 | 16.1 | 0.00 | 0.00 | 0.00 | 56 | 1014.8 |
| 20260906175525 | 31 | 323 | 6.4 | 14.5 | 0.00 | 0.00 | 0.00 | 55 | 1014.8 |
| 20260906175027 | 31 | 49 | 3.2 | 14.5 | 0.00 | 0.00 | 0.00 | 55 | 1014.9 |
| 20260906174557 | 31 | 46 | 6.4 | 17.7 | 0.00 | 0.00 | 0.00 | 55 | 1015.0 |
| 20260906174027 | 31 | 321 | 8.0 | 17.7 | 0.00 | 0.00 | 0.00 | 55 | 1015.1 |
| 20260906173529 | 31 | 326 | 4.8 | 16.1 | 0.00 | 0.00 | 0.00 | 54 | 1015.1 |
| 20260906173100 | 31 | 24 | 6.4 | 17.7 | 0.00 | 0.00 | 0.00 | 56 | 1015.1 |
| 20260906172524 | 31 | 360 | 6.4 | 19.3 | 0.00 | 0.00 | 0.00 | 55 | 1015.2 |
| 20260906172027 | 31 | 9 | 6.4 | 19.3 | 0.00 | 0.00 | 0.00 | 54 | 1015.2 |
| 20260906171554 | 31 | 311 | 4.8 | 14.5 | 0.00 | 0.00 | 0.00 | 54 | 1015.4 |
| 20260906171028 | 31 | 40 | 3.2 | 17.7 | 0.00 | 0.00 | 0.00 | 57 | 1015.4 |
| 20260906170524 | 31 | 330 | 6.4 | 17.7 | 0.00 | 0.00 | 0.00 | 56 | 1015.5 |
| 20260906170052 | 31 | 317 | 6.4 | 17.7 | 0.00 | 0.00 | 0.00 | 55 | 1015.5 |
| 20260906165523 | 31 | 23 | 4.8 | 19.3 | 0.00 | 0.00 | 0.00 | 55 | 1015.5 |
| 20260906165027 | 31 | 40 | 3.2 | 19.3 | 0.00 | 0.00 | 0.00 | 57 | 1015.6 |
| 20260906164547 | 31 | 325 | 9.7 | 19.3 | 0.00 | 0.00 | 0.00 | 55 | 1015.6 |
| 20260906164026 | 31 | 315 | 6.4 | 16.1 | 0.00 | 0.00 | 0.00 | 55 | 1015.7 |
| 20260906163523 | 30 | 0 | 6.4 | 16.1 | 0.00 | 0.00 | 0.00 | 56 | 1015.6 |
| 20260906163059 | 30 | 47 | 4.8 | 16.1 | 0.00 | 0.00 | 0.00 | 56 | 1015.5 |
| 20260906162525 | 30 | 317 | 6.4 | 16.1 | 0.00 | 0.00 | 0.00 | 57 | 1015.6 |
| 20260906162023 | 30 | 323 | 6.4 | 16.1 | 0.00 | 0.00 | 0.00 | 58 | 1015.6 |
| 20260906161553 | 30 | 350 | 6.4 | 17.7 | 0.00 | 0.00 | 0.00 | 57 | 1015.5 |
| 20260906161027 | 30 | 0 | 6.4 | 17.7 | 0.00 | 0.00 | 0.00 | 58 | 1015.6 |
| 20260906160524 | 30 | 342 | 6.4 | 16.1 | 0.00 | 0.00 | 0.00 | 56 | 1015.5 |
| 20260906160052 | 30 | 328 | 4.8 | 14.5 | 0.00 | 0.00 | 0.00 | 58 | 1015.6 |
| 20260906155524 | 29 | 349 | 6.4 | 14.5 | 0.00 | 0.00 | 0.00 | 59 | 1015.5 |
| 20260906155023 | 29 | 331 | 4.8 | 12.9 | 0.00 | 0.00 | 0.00 | 59 | 1015.4 |
| 20260906154551 | 28 | 319 | 3.2 | 9.7 | 0.00 | 0.00 | 0.00 | 60 | 1015.4 |
| 20260906154023 | 28 | 313 | 3.2 | 11.3 | 0.00 | 0.00 | 0.00 | 60 | 1015.4 |
| 20260906153529 | 28 | 317 | 4.8 | 11.3 | 0.00 | 0.00 | 0.00 | 61 | 1015.4 |
| 20260906153116 | 28 | 309 | 4.8 | 9.7 | 0.00 | 0.00 | 0.00 | 62 | 1015.3 |
| 20260906152524 | 28 | 303 | 3.2 | 12.9 | 0.00 | 0.00 | 0.00 | 64 | 1015.4 |
| 20260906152024 | 28 | 302 | 3.2 | 12.9 | 0.00 | 0.00 | 0.00 | 63 | 1015.3 |
| 20260906151600 | 27 | 289 | 3.2 | 12.9 | 0.00 | 0.00 | 0.00 | 63 | 1015.4 |
| 20260906151027 | 27 | 252 | 3.2 | 6.4 | 0.00 | 0.00 | 0.00 | 64 | 1015.3 |
| 20260906150524 | 27 | 244 | 3.2 | 6.4 | 0.00 | 0.00 | 0.00 | 65 | 1015.3 |
| 20260906150052 | 27 | 239 | 0.0 | 6.4 | 0.00 | 0.00 | 0.00 | 65 | 1015.3 |
| 20260906145525 | 27 | 0 | 0.0 | 6.4 | 0.00 | 0.00 | 0.00 | 66 | 1015.0 |
| 20260906145023 | 27 | 240 | 3.2 | 6.4 | 0.00 | 0.00 | 0.00 | 67 | 1015.2 |
| 20260906144558 | 27 | 239 | 0.0 | 6.4 | 0.00 | 0.00 | 0.00 | 67 | 1015.0 |
| 20260906144024 | 26 | 0 | 0.0 | 8.0 | 0.00 | 0.00 | 0.00 | 68 | 1015.0 |
| 20260906143524 | 26 | 239 | 1.6 | 11.3 | 0.00 | 0.00 | 0.00 | 68 | 1015.1 |
| 20260906143054 | 26 | 238 | 1.6 | 17.7 | 0.00 | 0.00 | 0.00 | 69 | 1015.0 |
| 20260906142525 | 26 | 243 | 3.2 | 17.7 | 0.00 | 0.00 | 0.00 | 72 | 1015.2 |
| 20260906142026 | 26 | 305 | 9.7 | 17.7 | 0.00 | 0.00 | 0.00 | 73 | 1015.6 |
| 20260906141553 | 26 | 0 | 1.6 | 4.8 | 0.00 | 0.00 | 0.00 | 70 | 1014.9 |
| 20260906141024 | 26 | 0 | 1.6 | 4.8 | 0.00 | 0.00 | 0.00 | 71 | 1014.8 |
| 20260906140525 | 25 | 0 | 0.0 | 1.6 | 0.00 | 0.00 | 0.00 | 73 | 1014.8 |
| 20260906140051 | 25 | 0 | 0.0 | 1.6 | 0.00 | 0.00 | 0.00 | 76 | 1014.8 |
| 20260906135528 | 25 | 0 | 0.0 | 0.0 | 0.00 | 0.00 | 0.00 | 79 | 1014.9 |
| 20260906135026 | 24 | 0 | 0.0 | 0.0 | 0.00 | 0.00 | 0.00 | 81 | 1014.9 |
| 20260906134606 | 23 | 0 | 0.0 | 0.0 | 0.00 | 0.00 | 0.00 | 83 | 1014.8 |
| 20260906134026 | 23 | 0 | 0.0 | 0.0 | 0.00 | 0.00 | 0.00 | 83 | 1014.7 |
| 20260906133530 | 23 | 0 | 0.0 | 0.0 | 0.00 | 0.00 | 0.00 | 84 | 1014.7 |
| 20260906133056 | 23 | 0 | 0.0 | 0.0 | 0.00 | 0.00 | 0.00 | 85 | 1014.7 |
| 20260906132524 | 22 | 0 | 0.0 | 0.0 | 0.00 | 0.00 | 0.00 | 86 | 1014.6 |
| 20260906132024 | 22 | 0 | 0.0 | 0.0 | 0.00 | 0.00 | 0.00 | 87 | 1014.6 |
| 20260906131555 | 22 | 0 | 0.0 | 0.0 | 0.00 | 0.00 | 0.00 | 89 | 1014.6 |
| 20260906131027 | 21 | 0 | 0.0 | 0.0 | 0.00 | 0.00 | 0.00 | 90 | 1014.5 |
| 20260906130524 | 21 | 0 | 0.0 | 0.0 | 0.00 | 0.00 | 0.00 | 91 | 1014.5 |
| 20260906130049 | 21 | 0 | 0.0 | 0.0 | 0.00 | 0.00 | 0.00 | 91 | 1014.4 |
| 20260906125525 | 20 | 0 | 0.0 | 0.0 | 0.00 | 0.00 | 0.00 | 90 | 1014.4 |
| 20260906125026 | 20 | 0 | 0.0 | 0.0 | 0.00 | 0.00 | 0.00 | 90 | 1014.3 |
| 20260906124555 | 20 | 0 | 0.0 | 0.0 | 0.00 | 0.00 | 0.00 | 90 | 1014.3 |
| 20260906124025 | 20 | 0 | 0.0 | 0.0 | 0.00 | 0.00 | 0.00 | 90 | 1014.2 |
| 20260906123525 | 20 | 0 | 0.0 | 0.0 | 0.00 | 0.00 | 0.00 | 90 | 1014.2 |
| 20260906123058 | 20 | 0 | 0.0 | 0.0 | 0.00 | 0.00 | 0.00 | 89 | 1014.1 |
| 20260906122524 | 20 | 0 | 0.0 | 0.0 | 0.00 | 0.00 | 0.00 | 89 | 1014.0 |
| 20260906122024 | 20 | 0 | 0.0 | 4.8 | 0.00 | 0.00 | 0.00 | 89 | 1013.9 |
| 20260906121552 | 20 | 0 | 0.0 | 4.8 | 0.00 | 0.00 | 0.00 | 89 | 1013.7 |
| 20260906121025 | 20 | 110 | 0.0 | 3.2 | 0.00 | 0.00 | 0.00 | 89 | 1013.8 |
| 20260906120524 | 20 | 0 | 0.0 | 3.2 | 0.00 | 0.00 | 0.00 | 89 | 1013.6 |
| 20260906120051 | 20 | 0 | 0.0 | 3.2 | 0.00 | 0.00 | 0.00 | 89 | 1013.6 |
| 20260906115523 | 20 | 114 | 0.0 | 3.2 | 0.00 | 0.00 | 0.00 | 89 | 1013.4 |
| 20260906115024 | 20 | 0 | 0.0 | 1.6 | 0.00 | 0.00 | 0.00 | 89 | 1013.4 |
| 20260906114546 | 20 | 0 | 0.0 | 1.6 | 0.00 | 0.00 | 0.00 | 89 | 1013.3 |
| 20260906114025 | 20 | 0 | 0.0 | 1.6 | 0.00 | 0.00 | 0.00 | 88 | 1013.3 |
| 20260906113524 | 20 | 114 | 0.0 | 1.6 | 0.00 | 0.00 | 0.00 | 89 | 1013.2 |
| 20260906113053 | 20 | 0 | 0.0 | 3.2 | 0.00 | 0.00 | 0.00 | 89 | 1013.1 |
| 20260906112529 | 20 | 0 | 0.0 | 3.2 | 0.00 | 0.00 | 0.00 | 89 | 1013.2 |
| 20260906112023 | 20 | 114 | 0.0 | 3.2 | 0.00 | 0.00 | 0.00 | 88 | 1013.1 |
| 20260906111552 | 20 | 0 | 0.0 | 0.0 | 0.00 | 0.00 | 0.00 | 88 | 1013.2 |
| 20260906111024 | 20 | 0 | 0.0 | 0.0 | 0.00 | 0.00 | 0.00 | 88 | 1013.1 |
| 20260906110524 | 20 | 0 | 0.0 | 0.0 | 0.00 | 0.00 | 0.00 | 88 | 1013.1 |
| 20260906110053 | 20 | 0 | 0.0 | 1.6 | 0.00 | 0.00 | 0.00 | 88 | 1013.2 |
| 20260906105524 | 20 | 0 | 0.0 | 1.6 | 0.00 | 0.00 | 0.00 | 88 | 1013.0 |
| 20260906105024 | 20 | 0 | 0.0 | 1.6 | 0.00 | 0.00 | 0.00 | 88 | 1013.1 |
| 20260906104554 | 20 | 0 | 0.0 | 3.2 | 0.00 | 0.00 | 0.00 | 87 | 1013.1 |
| 20260906104026 | 21 | 0 | 0.0 | 3.2 | 0.00 | 0.00 | 0.00 | 87 | 1013.1 |
| 20260906103529 | 21 | 0 | 0.0 | 1.6 | 0.00 | 0.00 | 0.00 | 87 | 1013.1 |
| 20260906103103 | 21 | 0 | 0.0 | 0.0 | 0.00 | 0.00 | 0.00 | 88 | 1013.0 |
| 20260906102523 | 21 | 0 | 0.0 | 3.2 | 0.00 | 0.00 | 0.00 | 88 | 1012.9 |
| 20260906102026 | 21 | 0 | 0.0 | 3.2 | 0.00 | 0.00 | 0.00 | 88 | 1012.9 |
| 20260906101554 | 21 | 114 | 0.0 | 3.2 | 0.00 | 0.00 | 0.00 | 88 | 1012.9 |
| 20260906101023 | 21 | 0 | 0.0 | 0.0 | 0.00 | 0.00 | 0.00 | 87 | 1012.9 |
| 20260906100524 | 21 | 0 | 0.0 | 0.0 | 0.00 | 0.00 | 0.00 | 87 | 1012.9 |
| 20260906100047 | 21 | 0 | 0.0 | 0.0 | 0.00 | 0.00 | 0.00 | 87 | 1012.9 |
| 20260906095524 | 21 | 0 | 0.0 | 0.0 | 0.00 | 0.00 | 0.00 | 87 | 1012.8 |
| 20260906095024 | 21 | 0 | 0.0 | 0.0 | 0.00 | 0.00 | 0.00 | 87 | 1012.7 |
| 20260906094553 | 21 | 0 | 0.0 | 0.0 | 0.00 | 0.00 | 0.00 | 87 | 1012.7 |
| 20260906094024 | 21 | 0 | 0.0 | 0.0 | 0.00 | 0.00 | 0.00 | 86 | 1012.8 |
| 20260906093527 | 21 | 0 | 0.0 | 0.0 | 0.00 | 0.00 | 0.00 | 86 | 1012.9 |
| 20260906093059 | 21 | 0 | 0.0 | 0.0 | 0.00 | 0.00 | 0.00 | 86 | 1012.9 |
| 20260906092524 | 21 | 0 | 0.0 | 0.0 | 0.00 | 0.00 | 0.00 | 86 | 1012.8 |
| 20260906092031 | 21 | 0 | 0.0 | 0.0 | 0.00 | 0.00 | 0.00 | 85 | 1012.8 |
| 20260906091553 | 21 | 0 | 0.0 | 0.0 | 0.00 | 0.00 | 0.00 | 85 | 1012.7 |
| 20260906091024 | 21 | 0 | 0.0 | 0.0 | 0.00 | 0.00 | 0.00 | 84 | 1012.8 |
| 20260906090523 | 21 | 0 | 0.0 | 0.0 | 0.00 | 0.00 | 0.00 | 84 | 1012.8 |
| 20260906085525 | 22 | 0 | 0.0 | 0.0 | 0.00 | 0.00 | 0.00 | 84 | 1012.9 |
| 20260906085023 | 22 | 0 | 0.0 | 0.0 | 0.00 | 0.00 | 0.00 | 84 | 1012.9 |
| 20260906084556 | 22 | 0 | 0.0 | 0.0 | 0.00 | 0.00 | 0.00 | 84 | 1012.9 |
| 20260906084025 | 22 | 0 | 0.0 | 0.0 | 0.00 | 0.00 | 0.00 | 83 | 1012.8 |
| 20260906083524 | 22 | 0 | 0.0 | 0.0 | 0.00 | 0.00 | 0.00 | 83 | 1012.8 |
| 20260906083052 | 22 | 0 | 0.0 | 0.0 | 0.00 | 0.00 | 0.00 | 83 | 1012.7 |
| 20260906082524 | 22 | 0 | 0.0 | 0.0 | 0.00 | 0.00 | 0.00 | 82 | 1012.8 |
| 20260906082027 | 22 | 0 | 0.0 | 0.0 | 0.00 | 0.00 | 0.00 | 83 | 1012.8 |
| 20260906081554 | 22 | 0 | 0.0 | 3.2 | 0.00 | 0.00 | 0.00 | 82 | 1012.8 |
| 20260906081024 | 22 | 0 | 0.0 | 3.2 | 0.00 | 0.00 | 0.00 | 81 | 1012.8 |
| 20260906080524 | 22 | 114 | 0.0 | 3.2 | 0.00 | 0.00 | 0.00 | 80 | 1012.7 |
| 20260906080106 | 22 | 0 | 0.0 | 0.0 | 0.00 | 0.00 | 0.00 | 80 | 1012.7 |
| 20260906075524 | 22 | 0 | 0.0 | 0.0 | 0.00 | 0.00 | 0.00 | 80 | 1012.7 |
| 20260906075026 | 23 | 0 | 0.0 | 0.0 | 0.00 | 0.00 | 0.00 | 79 | 1012.7 |
| 20260906074606 | 23 | 0 | 0.0 | 0.0 | 0.00 | 0.00 | 0.00 | 78 | 1012.6 |
| 20260906074024 | 23 | 0 | 0.0 | 0.0 | 0.00 | 0.00 | 0.00 | 78 | 1012.5 |
| 20260906073526 | 23 | 0 | 0.0 | 0.0 | 0.00 | 0.00 | 0.00 | 77 | 1012.5 |
| 20260906073106 | 23 | 0 | 0.0 | 0.0 | 0.00 | 0.00 | 0.00 | 76 | 1012.4 |
| 20260906072528 | 24 | 0 | 0.0 | 0.0 | 0.00 | 0.00 | 0.00 | 76 | 1012.5 |
| 20260906072027 | 24 | 0 | 0.0 | 6.4 | 0.00 | 0.00 | 0.00 | 75 | 1012.4 |
| 20260906071552 | 24 | 0 | 0.0 | 6.4 | 0.00 | 0.00 | 0.00 | 76 | 1012.5 |
| 20260906071026 | 24 | 115 | 1.6 | 6.4 | 0.00 | 0.00 | 0.00 | 76 | 1012.5 |
| 20260906070524 | 24 | 0 | 0.0 | 3.2 | 0.00 | 0.00 | 0.00 | 76 | 1012.5 |
| 20260906070050 | 24 | 115 | 0.0 | 3.2 | 0.00 | 0.00 | 0.00 | 75 | 1012.7 |
| 20260906065523 | 24 | 115 | 0.0 | 3.2 | 0.00 | 0.00 | 0.00 | 74 | 1012.8 |
| 20260906065025 | 25 | 0 | 0.0 | 1.6 | 0.00 | 0.00 | 0.00 | 73 | 1012.8 |
| 20260906064555 | 25 | 0 | 0.0 | 1.6 | 0.00 | 0.00 | 0.00 | 73 | 1012.7 |
| 20260906064027 | 25 | 115 | 0.0 | 3.2 | 0.00 | 0.00 | 0.00 | 72 | 1012.7 |
| 20260906063526 | 25 | 0 | 0.0 | 6.4 | 0.00 | 0.00 | 0.00 | 70 | 1012.7 |
| 20260906063054 | 26 | 115 | 1.6 | 6.4 | 0.00 | 0.00 | 0.00 | 69 | 1012.7 |
| 20260906062528 | 26 | 117 | 3.2 | 6.4 | 0.00 | 0.00 | 0.00 | 69 | 1012.7 |
| 20260906062023 | 26 | 117 | 1.6 | 4.8 | 0.00 | 0.00 | 0.00 | 68 | 1012.7 |
| 20260906061552 | 26 | 0 | 0.0 | 4.8 | 0.00 | 0.00 | 0.00 | 68 | 1012.6 |
| 20260906061024 | 26 | 0 | 0.0 | 4.8 | 0.00 | 0.00 | 0.00 | 67 | 1012.5 |
| 20260906060523 | 26 | 118 | 0.0 | 6.4 | 0.00 | 0.00 | 0.00 | 67 | 1012.6 |
| 20260906060049 | 26 | 0 | 1.6 | 14.5 | 0.00 | 0.00 | 0.00 | 67 | 1012.7 |
| 20260906055526 | 26 | 120 | 4.8 | 16.1 | 0.00 | 0.00 | 0.00 | 67 | 1012.7 |
| 20260906055026 | 26 | 110 | 9.7 | 16.1 | 0.00 | 0.00 | 0.00 | 67 | 1012.7 |
| 20260906054555 | 26 | 97 | 11.3 | 16.1 | 0.00 | 0.00 | 0.00 | 67 | 1012.7 |
| 20260906054024 | 26 | 107 | 11.3 | 16.1 | 0.00 | 0.00 | 0.00 | 67 | 1012.6 |
| 20260906053526 | 26 | 105 | 9.7 | 14.5 | 0.00 | 0.00 | 0.00 | 66 | 1012.6 |
| 20260906053054 | 27 | 118 | 9.7 | 16.1 | 0.00 | 0.00 | 0.00 | 66 | 1012.6 |
| 20260906052528 | 27 | 112 | 9.7 | 16.1 | 0.00 | 0.00 | 0.00 | 66 | 1012.5 |
| 20260906052024 | 27 | 107 | 9.7 | 16.1 | 0.00 | 0.00 | 0.00 | 66 | 1012.4 |
| 20260906051601 | 27 | 105 | 8.0 | 14.5 | 0.00 | 0.00 | 0.00 | 66 | 1012.4 |
| 20260906051026 | 27 | 103 | 9.7 | 14.5 | 0.00 | 0.00 | 0.00 | 66 | 1012.3 |
| 20260906050523 | 27 | 102 | 8.0 | 16.1 | 0.00 | 0.00 | 0.00 | 66 | 1012.3 |
| 20260906050104 | 27 | 108 | 8.0 | 16.1 | 0.00 | 0.00 | 0.00 | 66 | 1012.3 |
| 20260906045526 | 27 | 106 | 6.4 | 14.5 | 0.00 | 0.00 | 0.00 | 66 | 1012.3 |
| 20260906045025 | 27 | 113 | 8.0 | 14.5 | 0.00 | 0.00 | 0.00 | 66 | 1012.3 |
| 20260906044555 | 27 | 109 | 8.0 | 14.5 | 0.00 | 0.00 | 0.00 | 66 | 1012.4 |
| 20260906044025 | 27 | 105 | 6.4 | 16.1 | 0.00 | 0.00 | 0.00 | 66 | 1012.4 |
| 20260906043527 | 27 | 120 | 6.4 | 16.1 | 0.00 | 0.00 | 0.00 | 66 | 1012.3 |
| 20260906043058 | 27 | 109 | 8.0 | 16.1 | 0.00 | 0.00 | 0.00 | 66 | 1012.3 |
| 20260906042523 | 27 | 98 | 4.8 | 12.9 | 0.00 | 0.00 | 0.00 | 66 | 1012.4 |
| 20260906042024 | 27 | 111 | 6.4 | 12.9 | 0.00 | 0.00 | 0.00 | 66 | 1012.4 |
| 20260906041549 | 27 | 104 | 8.0 | 12.9 | 0.00 | 0.00 | 0.00 | 66 | 1012.5 |
| 20260906041025 | 27 | 108 | 6.4 | 12.9 | 0.00 | 0.00 | 0.00 | 66 | 1012.4 |
| 20260906040524 | 27 | 116 | 3.2 | 11.3 | 0.00 | 0.00 | 0.00 | 67 | 1012.3 |
| 20260906040059 | 27 | 119 | 4.8 | 11.3 | 0.00 | 0.00 | 0.00 | 67 | 1012.4 |
| 20260906035525 | 27 | 122 | 4.8 | 11.3 | 0.00 | 0.00 | 0.00 | 67 | 1012.4 |
| 20260906035026 | 27 | 115 | 3.2 | 9.7 | 0.00 | 0.00 | 0.00 | 67 | 1012.3 |
| 20260906034617 | 27 | 113 | 3.2 | 11.3 | 0.00 | 0.00 | 0.00 | 67 | 1012.3 |
| 20260906034030 | 27 | 105 | 4.8 | 11.3 | 0.00 | 0.00 | 0.00 | 68 | 1012.4 |
| 20260906033524 | 27 | 105 | 4.8 | 11.3 | 0.00 | 0.00 | 0.00 | 68 | 1012.3 |
| 20260906033054 | 27 | 101 | 6.4 | 11.3 | 0.00 | 0.00 | 0.00 | 69 | 1012.2 |
| 20260906032526 | 27 | 104 | 4.8 | 11.3 | 0.00 | 0.00 | 0.00 | 69 | 1012.1 |
| 20260906032025 | 27 | 105 | 4.8 | 11.3 | 0.00 | 0.00 | 0.00 | 69 | 1012.1 |
| 20260906031552 | 27 | 107 | 4.8 | 11.3 | 0.00 | 0.00 | 0.00 | 69 | 1012.0 |
| 20260906031024 | 27 | 101 | 3.2 | 11.3 | 0.00 | 0.00 | 0.00 | 69 | 1012.1 |
| 20260906030526 | 27 | 96 | 4.8 | 11.3 | 0.00 | 0.00 | 0.00 | 69 | 1012.1 |
| 20260906030055 | 27 | 93 | 4.8 | 11.3 | 0.00 | 0.00 | 0.00 | 68 | 1012.0 |
| 20260906025526 | 28 | 101 | 3.2 | 11.3 | 0.00 | 0.00 | 0.00 | 67 | 1012.0 |
| 20260906025025 | 28 | 101 | 4.8 | 11.3 | 0.00 | 0.00 | 0.00 | 66 | 1012.0 |
| 20260906024553 | 28 | 107 | 4.8 | 11.3 | 0.00 | 0.00 | 0.00 | 66 | 1011.9 |
| 20260906024027 | 28 | 98 | 4.8 | 9.7 | 0.00 | 0.00 | 0.00 | 66 | 1011.8 |
| 20260906023525 | 28 | 101 | 3.2 | 12.9 | 0.00 | 0.00 | 0.00 | 66 | 1011.8 |
| 20260906023050 | 28 | 110 | 4.8 | 12.9 | 0.00 | 0.00 | 0.00 | 65 | 1011.7 |
| 20260906022530 | 28 | 97 | 3.2 | 11.3 | 0.00 | 0.00 | 0.00 | 65 | 1011.6 |
| 20260906022024 | 28 | 94 | 4.8 | 11.3 | 0.00 | 0.00 | 0.00 | 65 | 1011.5 |
| 20260906021553 | 28 | 105 | 3.2 | 6.4 | 0.00 | 0.00 | 0.00 | 65 | 1011.4 |
| 20260906021024 | 28 | 105 | 3.2 | 9.7 | 0.00 | 0.00 | 0.00 | 64 | 1011.2 |
| 20260906020524 | 29 | 106 | 3.2 | 9.7 | 0.00 | 0.00 | 0.00 | 63 | 1011.1 |
| 20260906020100 | 29 | 101 | 4.8 | 9.7 | 0.00 | 0.00 | 0.00 | 62 | 1011.1 |
| 20260906015527 | 30 | 101 | 3.2 | 9.7 | 0.00 | 0.00 | 0.00 | 61 | 1011.0 |
| 20260906015025 | 30 | 101 | 4.8 | 12.9 | 0.00 | 0.00 | 0.00 | 60 | 1010.8 |
| 20260906014547 | 30 | 97 | 4.8 | 14.5 | 0.00 | 0.00 | 0.00 | 59 | 1010.8 |
| 20260906014025 | 30 | 69 | 6.4 | 16.1 | 0.00 | 0.00 | 0.00 | 58 | 1010.7 |
| 20260906013525 | 31 | 134 | 4.8 | 16.1 | 0.00 | 0.00 | 0.00 | 57 | 1010.7 |
| 20260906013105 | 31 | 90 | 3.2 | 16.1 | 0.00 | 0.00 | 0.00 | 57 | 1010.6 |
| 20260906012526 | 31 | 82 | 6.4 | 16.1 | 0.00 | 0.00 | 0.00 | 56 | 1010.6 |
| 20260906012026 | 31 | 76 | 4.8 | 16.1 | 0.00 | 0.00 | 0.00 | 57 | 1010.6 |
| 20260906011555 | 31 | 107 | 1.6 | 9.7 | 0.00 | 0.00 | 0.00 | 56 | 1010.5 |
| 20260906011027 | 31 | 107 | 1.6 | 17.7 | 0.00 | 0.00 | 0.00 | 56 | 1010.6 |
| 20260906010527 | 31 | 108 | 4.8 | 17.7 | 0.00 | 0.00 | 0.00 | 55 | 1010.6 |
| 20260906010055 | 31 | 85 | 6.4 | 17.7 | 0.00 | 0.00 | 0.00 | 55 | 1010.5 |
| 20260906005523 | 32 | 81 | 3.2 | 9.7 | 0.00 | 0.00 | 0.00 | 54 | 1010.6 |
| 20260906005025 | 32 | 110 | 3.2 | 9.7 | 0.00 | 0.00 | 0.00 | 53 | 1010.6 |
| 20260906004548 | 32 | 109 | 3.2 | 12.9 | 0.00 | 0.00 | 0.00 | 53 | 1010.6 |
| 20260906004027 | 32 | 96 | 3.2 | 12.9 | 0.00 | 0.00 | 0.00 | 52 | 1010.6 |
| 20260906003524 | 33 | 113 | 6.4 | 11.3 | 0.00 | 0.00 | 0.00 | 51 | 1010.6 |
| 20260906003046 | 33 | 117 | 4.8 | 11.3 | 0.00 | 0.00 | 0.00 | 50 | 1010.5 |
| 20260906002525 | 33 | 108 | 4.8 | 14.5 | 0.00 | 0.00 | 0.00 | 49 | 1010.5 |
| 20260906002027 | 33 | 107 | 8.0 | 14.5 | 0.00 | 0.00 | 0.00 | 48 | 1010.4 |
| 20260906001553 | 33 | 111 | 6.4 | 16.1 | 0.00 | 0.00 | 0.00 | 48 | 1010.4 |
| 20260906001024 | 34 | 107 | 4.8 | 16.1 | 0.00 | 0.00 | 0.00 | 47 | 1010.4 |
| 20260906000525 | 34 | 124 | 4.8 | 16.1 | 0.00 | 0.00 | 0.00 | 47 | 1010.5 |
| 20260906000104 | 34 | 126 | 6.4 | 12.9 | 0.00 | 0.00 | 0.00 | 46 | 1010.6 |
| 20260905235528 | 34 | 128 | 4.8 | 16.1 | 0.00 | 0.00 | 0.00 | 46 | 1010.6 |
| 20260905235024 | 35 | 119 | 6.4 | 17.7 | 0.00 | 0.00 | 0.00 | 45 | 1010.6 |
| 20260905234556 | 35 | 132 | 6.4 | 17.7 | 0.00 | 0.00 | 0.00 | 45 | 1010.7 |
| 20260905234025 | 35 | 118 | 8.0 | 17.7 | 0.00 | 0.00 | 0.00 | 45 | 1010.6 |
| 20260905233527 | 35 | 101 | 8.0 | 19.3 | 0.00 | 0.00 | 0.00 | 44 | 1010.6 |
| 20260905233056 | 35 | 126 | 6.4 | 19.3 | 0.00 | 0.00 | 0.00 | 43 | 1010.6 |
| 20260905232528 | 35 | 126 | 8.0 | 19.3 | 0.00 | 0.00 | 0.00 | 43 | 1010.6 |
| 20260905232028 | 35 | 109 | 9.7 | 19.3 | 0.00 | 0.00 | 0.00 | 42 | 1010.6 |
| 20260905231555 | 35 | 106 | 8.0 | 20.9 | 0.00 | 0.00 | 0.00 | 41 | 1010.6 |
| 20260905231028 | 36 | 106 | 9.7 | 20.9 | 0.00 | 0.00 | 0.00 | 41 | 1010.6 |
| 20260905230525 | 36 | 113 | 12.9 | 20.9 | 0.00 | 0.00 | 0.00 | 39 | 1010.6 |
| 20260905225529 | 37 | 156 | 11.3 | 20.9 | 0.00 | 0.00 | 0.00 | 39 | 1010.6 |
| 20260905225026 | 37 | 142 | 12.9 | 20.9 | 0.00 | 0.00 | 0.00 | 38 | 1010.6 |
| 20260905224556 | 37 | 131 | 11.3 | 19.3 | 0.00 | 0.00 | 0.00 | 37 | 1010.5 |
| 20260905224024 | 37 | 136 | 9.7 | 17.7 | 0.00 | 0.00 | 0.00 | 38 | 1010.5 |
| 20260905223527 | 36 | 129 | 9.7 | 17.7 | 0.00 | 0.00 | 0.00 | 39 | 1010.6 |
| 20260905223055 | 36 | 133 | 6.4 | 17.7 | 0.00 | 0.00 | 0.00 | 38 | 1010.6 |
| 20260905222530 | 37 | 109 | 8.0 | 17.7 | 0.00 | 0.00 | 0.00 | 38 | 1010.7 |
| 20260905222024 | 37 | 126 | 9.7 | 17.7 | 0.00 | 0.00 | 0.00 | 37 | 1010.7 |
| 20260905221551 | 37 | 153 | 8.0 | 19.3 | 0.00 | 0.00 | 0.00 | 36 | 1010.7 |
| 20260905221030 | 37 | 183 | 9.7 | 19.3 | 0.00 | 0.00 | 0.00 | 36 | 1010.7 |
| 20260905220528 | 38 | 135 | 8.0 | 17.7 | 0.00 | 0.00 | 0.00 | 36 | 1010.7 |
| 20260905220108 | 38 | 122 | 6.4 | 22.5 | 0.00 | 0.00 | 0.00 | 36 | 1010.8 |
| 20260905215526 | 38 | 167 | 9.7 | 25.7 | 0.00 | 0.00 | 0.00 | 36 | 1010.8 |
| 20260905215025 | 38 | 146 | 12.9 | 25.7 | 0.00 | 0.00 | 0.00 | 36 | 1010.7 |
| 20260905214553 | 38 | 157 | 11.3 | 19.3 | 0.00 | 0.00 | 0.00 | 35 | 1010.8 |
| 20260905214029 | 38 | 109 | 11.3 | 20.9 | 0.00 | 0.00 | 0.00 | 35 | 1010.9 |
| 20260905213525 | 38 | 128 | 9.7 | 20.9 | 0.00 | 0.00 | 0.00 | 35 | 1011.0 |
| 20260905213052 | 37 | 130 | 9.7 | 22.5 | 0.00 | 0.00 | 0.00 | 37 | 1011.1 |
| 20260905212526 | 37 | 92 | 9.7 | 22.5 | 0.00 | 0.00 | 0.00 | 38 | 1011.2 |
| 20260905212024 | 37 | 180 | 11.3 | 20.9 | 0.00 | 0.00 | 0.00 | 38 | 1011.1 |
| 20260905211551 | 37 | 104 | 8.0 | 20.9 | 0.00 | 0.00 | 0.00 | 39 | 1011.1 |
| 20260905211029 | 37 | 107 | 6.4 | 20.9 | 0.00 | 0.00 | 0.00 | 38 | 1011.1 |
| 20260905210529 | 37 | 138 | 6.4 | 17.7 | 0.00 | 0.00 | 0.00 | 39 | 1011.2 |
| 20260905210106 | 37 | 123 | 9.7 | 17.7 | 0.00 | 0.00 | 0.00 | 40 | 1011.1 |
| 20260905205528 | 36 | 107 | 8.0 | 17.7 | 0.00 | 0.00 | 0.00 | 40 | 1011.1 |
| 20260905205027 | 36 | 153 | 9.7 | 17.7 | 0.00 | 0.00 | 0.00 | 40 | 1011.2 |
| 20260905204555 | 36 | 105 | 6.4 | 16.1 | 0.00 | 0.00 | 0.00 | 42 | 1011.2 |
| 20260905204024 | 36 | 146 | 9.7 | 16.1 | 0.00 | 0.00 | 0.00 | 41 | 1011.3 |
| 20260905203529 | 36 | 126 | 8.0 | 16.1 | 0.00 | 0.00 | 0.00 | 40 | 1011.3 |
| 20260905203117 | 36 | 150 | 9.7 | 16.1 | 0.00 | 0.00 | 0.00 | 41 | 1011.5 |
| 20260905202524 | 36 | 126 | 8.0 | 17.7 | 0.00 | 0.00 | 0.00 | 41 | 1011.5 |
| 20260905202025 | 36 | 140 | 9.7 | 19.3 | 0.00 | 0.00 | 0.00 | 40 | 1011.6 |
| 20260905201548 | 36 | 137 | 8.0 | 19.3 | 0.00 | 0.00 | 0.00 | 40 | 1011.7 |
| 20260905201024 | 37 | 136 | 9.7 | 17.7 | 0.00 | 0.00 | 0.00 | 40 | 1011.8 |
| 20260905200526 | 37 | 86 | 11.3 | 17.7 | 0.00 | 0.00 | 0.00 | 39 | 1011.8 |
| 20260905195526 | 37 | 178 | 6.4 | 16.1 | 0.00 | 0.00 | 0.00 | 40 | 1011.9 |
| 20260905195032 | 37 | 157 | 4.8 | 16.1 | 0.00 | 0.00 | 0.00 | 42 | 1012.0 |
| 20260905194553 | 36 | 134 | 9.7 | 16.1 | 0.00 | 0.00 | 0.00 | 41 | 1012.0 |
| 20260905194025 | 36 | 185 | 4.8 | 16.1 | 0.00 | 0.00 | 0.00 | 41 | 1012.1 |
| 20260905193527 | 36 | 147 | 9.7 | 17.7 | 0.00 | 0.00 | 0.00 | 41 | 1012.2 |
| 20260905193050 | 36 | 176 | 9.7 | 17.7 | 0.00 | 0.00 | 0.00 | 42 | 1012.3 |
| 20260905192525 | 36 | 126 | 9.7 | 17.7 | 0.00 | 0.00 | 0.00 | 42 | 1012.4 |
| 20260905192024 | 36 | 188 | 11.3 | 17.7 | 0.00 | 0.00 | 0.00 | 40 | 1012.4 |
| 20260905191558 | 36 | 196 | 8.0 | 14.5 | 0.00 | 0.00 | 0.00 | 43 | 1012.4 |